Weather History for Troy, AL

Change the Weather History Date:

Sunday, September 2, 2012

  Actual Average Record
Temperature  
Mean Temperature 81 °F 79 °F  
Max Temperature 91 °F 90 °F 96 °F (2014)
Min Temperature 70 °F 68 °F 64 °F (1999)
Degree Days  
Heating Degree Days 0 0  
Month to date heating degree days 0 0  
Since 1 July heating degree days 0 0  
Cooling Degree Days 16 14  
Month to date cooling degree days 33 28  
Year to date cooling degree days 1783 1662  
Growing Degree Days 30 (Base 50)    
Moisture  
Dew Point 72 °F    
Average Humidity 75    
Maximum Humidity 100    
Minimum Humidity 49    
Precipitation  
Precipitation 0.32 in 0.16 in 1.04 in (2004)
Month to date precipitation 0.32 0.29  
Year to date precipitation 43.06 38.24  
Sea Level Pressure  
Sea Level Pressure 30.05 in    
Wind  
Wind Speed 3 mph (SW)    
Max Wind Speed 18 mph    
Max Gust Speed 23 mph    
Visibility 6 miles    
Events Fog , Rain , Thunderstorm    
T = Trace of Precipitation, MM = Missing Value Source: NWS Daily Summary

Daily Weather History Graph

Daily Weather History Graph

Search for Another Location

Airport:

Trip Planner

Search our weather history database for the weather conditions in past years. The results will help you decide how hot, cold, wet, or windy it might be!

Date:

Astronomy

Sep. 02, 2012 Rise Set
Actual Time 6:20 AM CDT 7:06 PM CDT
Civil Twilight 5:55 AM CDT 7:30 PM CDT
Nautical Twilight 5:26 AM CDT 8:00 PM CDT
Astronomical Twilight 4:56 AM CDT 8:29 PM CDT
Moon 8:06 PM CDT (9/2) 8:16 AM CDT (9/2)
Length of Visible Light 13h 35m
Length of Day
12h 45m
Waning Gibbous, 95% of the Moon is Illuminated
Sep 2
Waning Gibbous
Sep 8
Last Quarter
Sep 15
New
Sep 22
First Quarter
Sep 29
Full

Hourly Weather History & Observations

Time (CDT) Temp. Heat Index Dew Point Humidity Pressure Visibility Wind Dir Wind Speed Gust Speed Precip Events Conditions
12:53 AM 73.0 °F - 71.1 °F 93% 30.10 in 10.0 mi Calm Calm - N/A   Clear
1:53 AM 73.0 °F - 71.1 °F 93% 30.07 in 10.0 mi Calm Calm - N/A   Clear
2:53 AM 71.1 °F - 70.0 °F 96% 30.05 in 6.0 mi Calm Calm - N/A   Clear
3:53 AM 72.0 °F - 70.0 °F 93% 30.04 in 5.0 mi Calm Calm - N/A   Clear
4:29 AM 71.6 °F - 69.8 °F 94% 30.06 in 1.8 mi Calm Calm - N/A   Clear
4:32 AM 71.6 °F - 69.8 °F 94% 30.06 in 1.0 mi Calm Calm - N/A   Clear
4:41 AM 71.6 °F - 71.6 °F 100% 30.06 in 1.5 mi Calm Calm - N/A   Clear
4:43 AM 71.6 °F - 71.6 °F 100% 30.06 in 2.0 mi Calm Calm - N/A   Clear
4:46 AM 71.6 °F - 71.6 °F 100% 30.06 in 4.0 mi Calm Calm - N/A   Partly Cloudy
4:53 AM 72.0 °F - 70.0 °F 93% 30.04 in 9.0 mi Calm Calm - N/A   Scattered Clouds
4:57 AM 71.6 °F - 69.8 °F 94% 30.06 in 1.8 mi Calm Calm - N/A   Mostly Cloudy
4:59 AM 71.6 °F - 71.6 °F 100% 30.06 in 0.8 mi Calm Calm - N/A   Mist
5:07 AM 71.6 °F - 71.6 °F 100% 30.06 in 0.2 mi Calm Calm - N/A Fog Fog
5:37 AM 69.8 °F - 69.8 °F 100% 30.07 in 0.2 mi Calm Calm - N/A Fog Fog
5:46 AM 71.6 °F - 69.8 °F 94% 30.07 in 1.0 mi Calm Calm - N/A   Mist
5:53 AM 72.0 °F - 71.1 °F 97% 30.06 in 1.0 mi Calm Calm - N/A   Mist
6:01 AM 69.8 °F - 69.8 °F 100% 30.08 in 0.5 mi Calm Calm - N/A Fog Fog
6:19 AM 69.8 °F - 69.8 °F 100% 30.08 in 0.8 mi Calm Calm - N/A   Overcast
6:27 AM 69.8 °F - 69.8 °F 100% 30.08 in 0.2 mi Calm Calm - N/A Fog Fog
6:41 AM 69.8 °F - 69.8 °F 100% 30.09 in 0.2 mi Calm Calm - N/A Fog Fog
6:53 AM 70.0 °F - 70.0 °F 100% 30.09 in 0.2 mi Calm Calm - N/A Fog Fog
7:03 AM 71.6 °F - 69.8 °F 94% 30.10 in 0.2 mi Calm Calm - N/A Fog Fog
7:21 AM 71.6 °F - 69.8 °F 94% 30.10 in 1.0 mi Calm Calm - N/A   Mist
7:23 AM 71.6 °F - 69.8 °F 94% 30.10 in 1.8 mi Calm Calm - N/A   Scattered Clouds
7:25 AM 71.6 °F - 69.8 °F 94% 30.10 in 3.0 mi Calm Calm - N/A   Scattered Clouds
7:33 AM 71.6 °F - 71.6 °F 100% 30.10 in 2.5 mi Calm Calm - N/A   Mostly Cloudy
7:43 AM 71.6 °F - 71.6 °F 100% 30.10 in 1.5 mi Calm Calm - N/A   Mostly Cloudy
7:51 AM 73.4 °F - 71.6 °F 94% 30.11 in 2.0 mi Calm Calm - N/A   Mostly Cloudy
7:53 AM 73.0 °F - 72.0 °F 96% 30.09 in 2.5 mi Calm Calm - N/A   Mostly Cloudy
8:00 AM 73.4 °F - 73.4 °F 100% 30.10 in 6.0 mi WSW 3.5 mph - N/A   Mostly Cloudy
8:18 AM 73.4 °F - 73.4 °F 100% 30.11 in 7.0 mi West 4.6 mph - N/A   Overcast
8:53 AM 75.9 °F - 73.0 °F 91% 30.10 in 9.0 mi West 4.6 mph - N/A   Overcast
9:17 AM 77.0 °F - 73.4 °F 89% 30.12 in 10.0 mi West 4.6 mph - N/A   Overcast
9:53 AM 78.1 °F - 73.0 °F 84% 30.10 in 10.0 mi WSW 4.6 mph - N/A   Overcast
10:19 AM 80.6 °F 85.4 °F 73.4 °F 79% 30.12 in 10.0 mi WSW 5.8 mph - N/A   Overcast
10:27 AM 80.6 °F 85.4 °F 73.4 °F 79% 30.11 in 10.0 mi SSW 3.5 mph - N/A   Mostly Cloudy
10:46 AM 82.4 °F 88.2 °F 73.4 °F 74% 30.11 in 10.0 mi Variable 4.6 mph - N/A   Scattered Clouds
10:53 AM 82.0 °F 87.4 °F 73.0 °F 74% 30.09 in 10.0 mi Calm Calm - N/A   Partly Cloudy
11:53 AM 84.9 °F 90.7 °F 72.0 °F 65% 30.07 in 10.0 mi South 5.8 mph - N/A   Clear
12:53 PM 89.1 °F 94.1 °F 70.0 °F 53% 30.05 in 10.0 mi WNW 5.8 mph - N/A   Scattered Clouds
1:53 PM 90.0 °F 95.4 °F 70.0 °F 52% 30.02 in 10.0 mi SSW 9.2 mph - N/A   Scattered Clouds
2:53 PM 90.0 °F 93.6 °F 68.0 °F 48% 30.00 in 10.0 mi WSW 10.4 mph - N/A   Partly Cloudy
3:53 PM 91.0 °F 95.6 °F 69.1 °F 48% 29.98 in 10.0 mi WSW 6.9 mph - N/A   Scattered Clouds
4:13 PM 89.6 °F 94.7 °F 69.8 °F 52% 29.99 in 10.0 mi South 6.9 mph - N/A Thunderstorm Scattered Clouds
4:53 PM 80.1 °F 83.8 °F 72.0 °F 76% 29.99 in 10.0 mi North 9.2 mph 20.7 mph 0.00 in Rain , Thunderstorm Light Thunderstorms and Rain
4:57 PM 78.8 °F - 71.6 °F 78% 30.02 in 1.2 mi WSW 11.5 mph 16.1 mph 0.10 in Rain , Thunderstorm Light Thunderstorms and Rain
4:59 PM 78.8 °F - 73.4 °F 83% 30.02 in 0.5 mi Variable 5.8 mph 16.1 mph 0.22 in Rain , Thunderstorm Heavy Rain
5:10 PM 77.0 °F - 73.4 °F 89% 30.00 in 1.2 mi SE 9.2 mph - 0.32 in Rain , Thunderstorm Light Thunderstorms and Rain
5:13 PM 77.0 °F - 73.4 °F 89% 30.00 in 4.0 mi SE 11.5 mph - 0.32 in Rain , Thunderstorm Light Thunderstorms and Rain
5:21 PM 78.8 °F - 73.4 °F 83% 30.00 in 10.0 mi SE 6.9 mph - 0.32 in   Mostly Cloudy
5:34 PM 78.8 °F - 75.2 °F 89% 29.99 in 10.0 mi SSE 5.8 mph - 0.32 in Thunderstorm Thunderstorm
5:49 PM 78.8 °F - 75.2 °F 89% 29.99 in 10.0 mi Calm Calm - 0.32 in   Clear
5:53 PM 79.0 °F - 75.0 °F 88% 29.97 in 10.0 mi SSE 3.5 mph - 0.32 in   Clear
6:53 PM 78.1 °F - 75.9 °F 93% 29.97 in 10.0 mi Calm Calm - N/A   Clear
7:53 PM 77.0 °F - 75.0 °F 94% 29.99 in 7.0 mi Calm Calm - N/A   Clear
8:53 PM 77.0 °F - 73.9 °F 90% 29.99 in 10.0 mi Calm Calm - N/A   Clear
9:53 PM 75.0 °F - 73.0 °F 94% 30.00 in 9.0 mi Calm Calm - N/A   Clear
10:53 PM 75.0 °F - 73.0 °F 94% 29.98 in 10.0 mi SSW 3.5 mph - N/A   Clear
11:53 PM 75.0 °F - 73.0 °F 94% 29.99 in 9.0 mi SSW 3.5 mph - N/A   Clear